,,,PA_Meas_PMT16A,,PR_Meas_QMR101_102,,RH_Meas_QMH101,,SR_Meas_QMS101,,TA_Meas_QMH101,,GenWind,,GenWind,
date,time,status,PA,status,PR,status,RH,status,SR,status,TA,status,DirAvg,status,SpdAvg,
2011-10-18, 00:00:04,VALID,1009.707,VALID,0.0,VALID,104.0,VALID,0.0,VALID,23.501,VALID,168.0,VALID,0.403,
2011-10-18, 00:01:04,VALID,1009.731,VALID,0.0,VALID,104.0,VALID,0.0,VALID,23.48,VALID,168.0,VALID,0.532,
2011-10-18, 00:02:04,VALID,1009.731,VALID,0.0,VALID,104.0,VALID,0.0,VALID,23.48,VALID,154.0,VALID,0.581,
2011-10-18, 00:03:04,VALID,1009.724,VALID,0.0,VALID,104.0,VALID,0.0,VALID,23.46,VALID,155.0,VALID,0.536,
2011-10-18, 00:04:04,VALID,1009.741,VALID,0.0,VALID,104.0,VALID,0.0,VALID,23.46,VALID,158.0,VALID,0.392,
2011-10-18, 00:05:04,VALID,1009.75,VALID,0.0,VALID,104.0,VALID,0.0,VALID,23.441,VALID,158.0,VALID,0.354,
2011-10-18, 00:06:04,VALID,1009.741,VALID,0.0,VALID,104.0,VALID,0.0,VALID,23.46,VALID,158.0,VALID,0.0,
2011-10-18, 00:07:04,VALID,1009.759,VALID,0.0,VALID,104.0,VALID,0.0,VALID,23.46,VALID,158.0,VALID,0.0,
2011-10-18, 00:08:04,VALID,1009.791,VALID,0.0,VALID,104.0,VALID,0.0,VALID,23.421,VALID,158.0,VALID,0.0,
2011-10-18, 00:09:04,VALID,1009.796,VALID,0.0,VALID,104.0,VALID,0.0,VALID,23.442,VALID,158.0,VALID,0.039,
2011-10-18, 00:10:04,VALID,1009.804,VALID,0.0,VALID,104.0,VALID,0.0,VALID,23.442,VALID,158.0,VALID,0.0,
2011-10-18, 00:11:04,VALID,1009.806,VALID,0.0,VALID,104.0,VALID,0.0,VALID,23.441,VALID,158.0,VALID,0.0,
2011-10-18, 00:12:04,VALID,1009.808,VALID,0.0,VALID,104.0,VALID,0.0,VALID,23.441,VALID,158.0,VALID,0.0,
2011-10-18, 00:13:04,VALID,1009.769,VALID,0.0,VALID,104.0,VALID,0.0,VALID,23.441,VALID,158.0,VALID,0.046,
2011-10-18, 00:14:04,VALID,1009.776,VALID,0.0,VALID,104.0,VALID,0.0,VALID,23.441,VALID,157.0,VALID,0.469,
2011-10-18, 00:15:04,VALID,1009.801,VALID,0.0,VALID,104.0,VALID,0.0,VALID,23.46,VALID,156.0,VALID,0.179,
2011-10-18, 00:16:04,VALID,1009.795,VALID,0.0,VALID,104.0,VALID,0.112,VALID,23.48,VALID,156.0,VALID,0.0,
2011-10-18, 00:17:04,VALID,1009.81,VALID,0.0,VALID,104.0,VALID,0.0,VALID,23.48,VALID,156.0,VALID,0.0,
2011-10-18, 00:18:04,VALID,1009.834,VALID,0.0,VALID,104.0,VALID,0.0,VALID,23.48,VALID,156.0,VALID,0.0,
2011-10-18, 00:19:04,VALID,1009.816,VALID,0.0,VALID,104.0,VALID,0.0,VALID,23.52,VALID,156.0,VALID,0.0,
2011-10-18, 00:20:04,VALID,1009.815,VALID,0.0,VALID,104.0,VALID,0.0,VALID,23.499,VALID,156.0,VALID,0.202,
2011-10-18, 00:21:04,VALID,1009.824,VALID,0.0,VALID,104.0,VALID,0.0,VALID,23.499,VALID,156.0,VALID,0.386,
2011-10-18, 00:22:04,VALID,1009.838,VALID,0.0,VALID,104.0,VALID,0.0,VALID,23.519,VALID,156.0,VALID,0.532,
2011-10-18, 00:23:04,VALID,1009.803,VALID,0.0,VALID,104.0,VALID,0.0,VALID,23.519,VALID,156.0,VALID,0.507,
2011-10-18, 00:24:04,VALID,1009.835,VALID,0.0,VALID,104.0,VALID,0.0,VALID,23.519,VALID,156.0,VALID,0.266,
2011-10-18, 00:25:04,VALID,1009.794,VALID,0.0,VALID,104.0,VALID,0.0,VALID,23.519,VALID,156.0,VALID,0.244,
2011-10-18, 00:26:04,VALID,1009.804,VALID,0.0,VALID,104.0,VALID,0.0,VALID,23.499,VALID,156.0,VALID,0.278,
2011-10-18, 00:27:04,VALID,1009.833,VALID,0.0,VALID,104.0,VALID,0.0,VALID,23.519,VALID,156.0,VALID,0.018,
2011-10-18, 00:28:04,VALID,1009.828,VALID,0.0,VALID,104.0,VALID,0.0,VALID,23.499,VALID,156.0,VALID,0.0,
2011-10-18, 00:29:04,VALID,1009.86,VALID,0.0,VALID,104.0,VALID,0.0,VALID,23.499,VALID,156.0,VALID,0.0,
2011-10-18, 00:30:04,VALID,1009.873,VALID,0.0,VALID,104.0,VALID,0.0,VALID,23.519,VALID,156.0,VALID,0.05,
2011-10-18, 00:31:04,VALID,1009.869,VALID,0.0,VALID,104.0,VALID,0.0,VALID,23.499,VALID,156.0,VALID,0.0,
2011-10-18, 00:32:04,VALID,1009.878,VALID,0.0,VALID,104.0,VALID,0.0,VALID,23.52,VALID,156.0,VALID,0.0,
2011-10-18, 00:33:04,VALID,1009.86,VALID,0.0,VALID,104.0,VALID,0.0,VALID,23.519,VALID,156.0,VALID,0.0,
2011-10-18, 00:34:04,VALID,1009.868,VALID,0.0,VALID,104.0,VALID,0.0,VALID,23.478,VALID,156.0,VALID,0.0,
2011-10-18, 00:35:04,VALID,1009.893,VALID,0.0,VALID,104.0,VALID,0.0,VALID,23.48,VALID,156.0,VALID,0.19,
2011-10-18, 00:36:04,VALID,1009.905,VALID,0.0,VALID,104.0,VALID,0.0,VALID,23.46,VALID,156.0,VALID,0.485,
2011-10-18, 00:37:04,VALID,1009.916,VALID,0.0,VALID,104.0,VALID,0.0,VALID,23.441,VALID,156.0,VALID,0.589,
2011-10-18, 00:38:04,VALID,1009.932,VALID,0.0,VALID,104.0,VALID,0.0,VALID,23.421,VALID,156.0,VALID,0.442,
2011-10-18, 00:39:04,VALID,1009.965,VALID,0.0,VALID,104.0,VALID,0.0,VALID,23.402,VALID,156.0,VALID,0.425,
2011-10-18, 00:40:04,VALID,1009.987,VALID,0.0,VALID,104.0,VALID,0.0,VALID,23.361,VALID,156.0,VALID,0.325,
2011-10-18, 00:41:04,VALID,1009.96,VALID,0.0,VALID,104.0,VALID,0.0,VALID,23.363,VALID,156.0,VALID,0.244,
2011-10-18, 00:42:04,VALID,1009.956,VALID,0.0,VALID,104.0,VALID,0.0,VALID,23.363,VALID,156.0,VALID,0.228,
2011-10-18, 00:43:04,VALID,1009.964,VALID,0.0,VALID,104.0,VALID,0.0,VALID,23.343,VALID,156.0,VALID,0.314,
2011-10-18, 00:44:04,VALID,1009.947,VALID,0.0,VALID,104.0,VALID,0.0,VALID,23.324,VALID,156.0,VALID,0.261,
2011-10-18, 00:45:04,VALID,1009.929,VALID,0.0,VALID,104.0,VALID,0.0,VALID,23.324,VALID,156.0,VALID,0.175,
2011-10-18, 00:46:04,VALID,1009.97,VALID,0.0,VALID,104.0,VALID,0.0,VALID,23.304,VALID,156.0,VALID,0.03,
2011-10-18, 00:47:04,VALID,1009.994,VALID,0.0,VALID,104.0,VALID,0.0,VALID,23.304,VALID,156.0,VALID,0.08,
2011-10-18, 00:48:04,VALID,1010.028,VALID,0.0,VALID,104.0,VALID,0.0,VALID,23.304,VALID,156.0,VALID,0.0,
2011-10-18, 00:49:04,VALID,1010.077,VALID,0.0,VALID,104.0,VALID,0.0,VALID,23.265,VALID,156.0,VALID,0.0,
2011-10-18, 00:50:04,VALID,1010.112,VALID,0.0,VALID,104.0,VALID,0.0,VALID,23.246,VALID,156.0,VALID,0.211,
2011-10-18, 00:51:04,VALID,1010.149,VALID,0.0,VALID,104.0,VALID,0.0,VALID,23.246,VALID,156.0,VALID,0.176,
2011-10-18, 00:52:04,VALID,1010.158,VALID,0.0,VALID,104.0,VALID,0.0,VALID,23.246,VALID,156.0,VALID,0.0,
2011-10-18, 00:53:04,VALID,1010.169,VALID,0.0,VALID,104.0,VALID,0.0,VALID,23.246,VALID,156.0,VALID,0.05,
2011-10-18, 00:54:04,VALID,1010.16,VALID,0.0,VALID,104.0,VALID,0.0,VALID,23.267,VALID,156.0,VALID,0.0,
2011-10-18, 00:55:04,VALID,1010.17,VALID,0.0,VALID,104.0,VALID,0.0,VALID,23.226,VALID,156.0,VALID,0.0,
2011-10-18, 00:56:04,VALID,1010.179,VALID,0.0,VALID,104.0,VALID,0.0,VALID,23.246,VALID,156.0,VALID,0.0,
2011-10-18, 00:57:04,VALID,1010.171,VALID,0.0,VALID,104.0,VALID,0.0,VALID,23.226,VALID,156.0,VALID,0.177,
2011-10-18, 00:58:04,VALID,1010.191,VALID,0.0,VALID,104.0,VALID,0.0,VALID,23.226,VALID,156.0,VALID,0.04,
2011-10-18, 00:59:04,VALID,1010.196,VALID,0.0,VALID,104.0,VALID,0.0,VALID,23.246,VALID,156.0,VALID,0.282,
2011-10-18, 01:00:04,VALID,1010.16,VALID,0.0,VALID,104.0,VALID,0.0,VALID,23.248,VALID,156.0,VALID,0.333,
2011-10-18, 01:01:04,VALID,1010.146,VALID,0.0,VALID,104.0,VALID,0.0,VALID,23.265,VALID,156.0,VALID,0.263,
2011-10-18, 01:02:04,VALID,1010.126,VALID,0.0,VALID,104.0,VALID,0.0,VALID,23.265,VALID,156.0,VALID,0.253,
2011-10-18, 01:03:04,VALID,1010.097,VALID,0.0,VALID,104.0,VALID,0.0,VALID,23.285,VALID,156.0,VALID,0.125,
2011-10-18, 01:04:04,VALID,1010.094,VALID,0.0,VALID,104.0,VALID,0.0,VALID,23.285,VALID,156.0,VALID,0.0,
2011-10-18, 01:05:04,VALID,1010.103,VALID,0.0,VALID,104.0,VALID,0.0,VALID,23.306,VALID,156.0,VALID,0.052,
2011-10-18, 01:06:04,VALID,1010.098,VALID,0.0,VALID,104.0,VALID,0.0,VALID,23.285,VALID,156.0,VALID,0.047,
2011-10-18, 01:07:04,VALID,1010.128,VALID,0.0,VALID,104.0,VALID,0.0,VALID,23.285,VALID,156.0,VALID,0.0,
2011-10-18, 01:08:04,VALID,1010.082,VALID,0.0,VALID,104.0,VALID,0.0,VALID,23.265,VALID,156.0,VALID,0.0,
2011-10-18, 01:09:04,VALID,1010.104,VALID,0.0,VALID,104.0,VALID,0.0,VALID,23.285,VALID,156.0,VALID,0.022,
2011-10-18, 01:10:04,VALID,1010.108,VALID,0.0,VALID,104.0,VALID,0.0,VALID,23.285,VALID,156.0,VALID,0.163,
2011-10-18, 01:11:04,VALID,1010.088,VALID,0.0,VALID,104.0,VALID,0.0,VALID,23.285,VALID,156.0,VALID,0.04,
2011-10-18, 01:12:04,VALID,1010.09,VALID,0.0,VALID,104.0,VALID,0.0,VALID,23.285,VALID,156.0,VALID,0.0,
2011-10-18, 01:13:04,VALID,1010.092,VALID,0.0,VALID,104.0,VALID,0.0,VALID,23.265,VALID,156.0,VALID,0.0,
2011-10-18, 01:14:04,VALID,1010.081,VALID,0.0,VALID,104.0,VALID,0.0,VALID,23.285,VALID,156.0,VALID,0.0,
2011-10-18, 01:15:04,VALID,1010.076,VALID,0.0,VALID,104.0,VALID,0.0,VALID,23.265,VALID,156.0,VALID,0.0,
2011-10-18, 01:16:04,VALID,1010.089,VALID,0.0,VALID,104.0,VALID,0.0,VALID,23.265,VALID,156.0,VALID,0.0,
2011-10-18, 01:17:04,VALID,1010.086,VALID,0.0,VALID,104.0,VALID,0.0,VALID,23.246,VALID,156.0,VALID,0.0,
2011-10-18, 01:18:04,VALID,1010.082,VALID,0.0,VALID,104.0,VALID,0.0,VALID,23.226,VALID,156.0,VALID,0.0,
2011-10-18, 01:19:04,VALID,1010.08,VALID,0.0,VALID,104.0,VALID,0.0,VALID,23.228,VALID,156.0,VALID,0.0,
2011-10-18, 01:20:04,VALID,1010.089,VALID,0.0,VALID,104.0,VALID,0.0,VALID,23.226,VALID,156.0,VALID,0.0,
2011-10-18, 01:21:04,VALID,1010.056,VALID,0.0,VALID,104.0,VALID,0.0,VALID,23.207,VALID,156.0,VALID,0.0,
2011-10-18, 01:22:04,VALID,1010.101,VALID,0.0,VALID,104.0,VALID,0.0,VALID,23.226,VALID,156.0,VALID,0.0,
2011-10-18, 01:23:04,VALID,1010.071,VALID,0.0,VALID,104.0,VALID,0.0,VALID,23.207,VALID,156.0,VALID,0.0,
2011-10-18, 01:24:04,VALID,1010.074,VALID,0.0,VALID,104.0,VALID,0.0,VALID,23.207,VALID,156.0,VALID,0.0,
2011-10-18, 01:25:04,VALID,1010.059,VALID,0.0,VALID,104.0,VALID,0.0,VALID,23.187,VALID,156.0,VALID,0.0,
2011-10-18, 01:26:04,VALID,1010.047,VALID,0.0,VALID,104.0,VALID,0.0,VALID,23.207,VALID,156.0,VALID,0.0,
2011-10-18, 01:27:04,VALID,1010.02,VALID,0.0,VALID,104.0,VALID,0.0,VALID,23.246,VALID,156.0,VALID,0.202,
2011-10-18, 01:28:04,VALID,1010.004,VALID,0.0,VALID,104.0,VALID,0.0,VALID,23.287,VALID,156.0,VALID,0.242,
2011-10-18, 01:29:04,VALID,1009.995,VALID,0.0,VALID,104.0,VALID,0.0,VALID,23.265,VALID,156.0,VALID,0.0,
2011-10-18, 01:30:04,VALID,1010.013,VALID,0.0,VALID,104.0,VALID,0.0,VALID,23.265,VALID,156.0,VALID,0.0,
2011-10-18, 01:31:04,VALID,1010.002,VALID,0.0,VALID,104.0,VALID,0.0,VALID,23.246,VALID,156.0,VALID,0.0,
2011-10-18, 01:32:04,VALID,1009.99,VALID,0.0,VALID,104.0,VALID,0.0,VALID,23.246,VALID,156.0,VALID,0.0,
2011-10-18, 01:33:04,VALID,1009.989,VALID,0.0,VALID,104.0,VALID,0.0,VALID,23.226,VALID,156.0,VALID,0.286,
2011-10-18, 01:34:04,VALID,1010.012,VALID,0.0,VALID,104.0,VALID,0.0,VALID,23.207,VALID,155.0,VALID,0.35,
2011-10-18, 01:35:04,VALID,1010.003,VALID,0.0,VALID,104.0,VALID,0.0,VALID,23.187,VALID,122.0,VALID,0.23,
2011-10-18, 01:36:04,VALID,1010.014,VALID,0.0,VALID,104.0,VALID,0.0,VALID,23.187,VALID,122.0,VALID,0.364,
2011-10-18, 01:37:04,VALID,1010.011,VALID,0.0,VALID,104.0,VALID,0.0,VALID,23.228,VALID,106.0,VALID,0.448,
2011-10-18, 01:38:04,VALID,1010.034,VALID,0.0,VALID,104.0,VALID,0.0,VALID,23.207,VALID,80.0,VALID,0.445,
2011-10-18, 01:39:04,VALID,1010.029,VALID,0.0,VALID,104.0,VALID,0.0,VALID,23.207,VALID,75.0,VALID,0.468,
2011-10-18, 01:40:04,VALID,1010.035,VALID,0.0,VALID,104.0,VALID,0.0,VALID,23.187,VALID,63.0,VALID,0.465,
2011-10-18, 01:41:04,VALID,1010.045,VALID,0.0,VALID,104.0,VALID,0.0,VALID,23.228,VALID,51.0,VALID,0.641,
2011-10-18, 01:42:04,VALID,1010.05,VALID,0.0,VALID,104.0,VALID,0.0,VALID,23.187,VALID,45.0,VALID,0.644,
2011-10-18, 01:43:04,VALID,1010.019,VALID,0.0,VALID,104.0,VALID,0.0,VALID,23.209,VALID,45.0,VALID,0.541,
2011-10-18, 01:44:04,VALID,1010.037,VALID,0.0,VALID,104.0,VALID,0.0,VALID,23.209,VALID,45.0,VALID,0.31,
2011-10-18, 01:45:04,VALID,1010.021,VALID,0.0,VALID,104.0,VALID,0.0,VALID,23.189,VALID,45.0,VALID,0.244,
2011-10-18, 01:46:04,VALID,1010.05,VALID,0.0,VALID,104.0,VALID,0.0,VALID,23.168,VALID,45.0,VALID,0.018,
2011-10-18, 01:47:04,VALID,1010.022,VALID,0.0,VALID,104.0,VALID,0.0,VALID,23.189,VALID,45.0,VALID,0.003,
2011-10-18, 01:48:04,VALID,1010.018,VALID,0.0,VALID,104.0,VALID,0.0,VALID,23.168,VALID,45.0,VALID,0.0,
2011-10-18, 01:49:04,VALID,1009.996,VALID,0.0,VALID,104.0,VALID,0.0,VALID,23.168,VALID,45.0,VALID,0.0,
2011-10-18, 01:50:04,VALID,1009.994,VALID,0.0,VALID,104.0,VALID,0.0,VALID,23.148,VALID,45.0,VALID,0.081,
2011-10-18, 01:51:04,VALID,1009.946,VALID,0.0,VALID,104.0,VALID,0.0,VALID,23.129,VALID,45.0,VALID,0.448,
2011-10-18, 01:52:04,VALID,1009.909,VALID,0.0,VALID,104.0,VALID,0.0,VALID,23.129,VALID,45.0,VALID,0.446,
2011-10-18, 01:53:04,VALID,1009.897,VALID,0.0,VALID,104.0,VALID,0.0,VALID,23.129,VALID,42.0,VALID,0.536,
2011-10-18, 01:54:04,VALID,1009.839,VALID,0.0,VALID,104.0,VALID,0.0,VALID,23.131,VALID,42.0,VALID,0.35,
2011-10-18, 01:55:04,VALID,1009.806,VALID,0.0,VALID,104.0,VALID,0.0,VALID,23.109,VALID,42.0,VALID,0.224,
2011-10-18, 01:56:04,VALID,1009.756,VALID,0.0,VALID,104.0,VALID,0.0,VALID,23.071,VALID,42.0,VALID,0.208,
2011-10-18, 01:57:04,VALID,1009.737,VALID,0.0,VALID,104.0,VALID,0.0,VALID,23.071,VALID,42.0,VALID,0.364,
2011-10-18, 01:58:04,VALID,1009.698,VALID,0.0,VALID,104.0,VALID,0.0,VALID,23.071,VALID,42.0,VALID,0.346,
2011-10-18, 01:59:04,VALID,1009.696,VALID,0.0,VALID,104.0,VALID,0.0,VALID,23.071,VALID,42.0,VALID,0.205,
2011-10-18, 02:00:04,VALID,1009.675,VALID,0.0,VALID,104.0,VALID,0.0,VALID,23.051,VALID,42.0,VALID,0.256,
2011-10-18, 02:01:04,VALID,1009.632,VALID,0.0,VALID,104.0,VALID,0.0,VALID,23.051,VALID,42.0,VALID,0.255,
2011-10-18, 02:02:04,VALID,1009.641,VALID,0.0,VALID,104.0,VALID,0.0,VALID,23.032,VALID,42.0,VALID,0.14,
2011-10-18, 02:03:04,VALID,1009.622,VALID,0.0,VALID,104.0,VALID,0.0,VALID,23.032,VALID,42.0,VALID,0.076,
2011-10-18, 02:04:04,VALID,1009.619,VALID,0.0,VALID,104.0,VALID,0.0,VALID,23.033,VALID,42.0,VALID,0.0,
2011-10-18, 02:05:04,VALID,1009.578,VALID,0.0,VALID,104.0,VALID,0.0,VALID,23.012,VALID,42.0,VALID,0.0,
2011-10-18, 02:06:04,VALID,1009.534,VALID,0.0,VALID,104.0,VALID,0.0,VALID,23.033,VALID,42.0,VALID,0.0,
2011-10-18, 02:07:04,VALID,1009.555,VALID,0.0,VALID,104.0,VALID,0.0,VALID,22.993,VALID,43.0,VALID,0.0,
2011-10-18, 02:08:04,VALID,1009.54,VALID,0.0,VALID,104.0,VALID,0.0,VALID,22.994,VALID,42.0,VALID,0.0,
2011-10-18, 02:09:04,VALID,1009.541,VALID,0.0,VALID,104.0,VALID,0.0,VALID,22.993,VALID,42.0,VALID,0.0,
2011-10-18, 02:10:04,VALID,1009.546,VALID,0.0,VALID,104.0,VALID,0.0,VALID,22.954,VALID,42.0,VALID,0.0,
2011-10-18, 02:11:04,VALID,1009.524,VALID,0.0,VALID,104.0,VALID,0.0,VALID,22.954,VALID,42.0,VALID,0.0,
2011-10-18, 02:12:04,VALID,1009.534,VALID,0.0,VALID,104.0,VALID,0.0,VALID,22.934,VALID,42.0,VALID,0.0,
2011-10-18, 02:13:04,VALID,1009.516,VALID,0.0,VALID,104.0,VALID,0.0,VALID,22.954,VALID,42.0,VALID,0.0,
2011-10-18, 02:14:04,VALID,1009.481,VALID,0.0,VALID,104.0,VALID,0.0,VALID,22.954,VALID,43.0,VALID,0.0,
2011-10-18, 02:15:04,VALID,1009.492,VALID,0.0,VALID,104.0,VALID,0.0,VALID,22.954,VALID,42.0,VALID,0.0,
2011-10-18, 02:16:04,VALID,1009.504,VALID,0.0,VALID,104.0,VALID,0.0,VALID,22.934,VALID,42.0,VALID,0.0,
2011-10-18, 02:17:04,VALID,1009.515,VALID,0.0,VALID,104.0,VALID,0.0,VALID,22.954,VALID,42.0,VALID,0.0,
2011-10-18, 02:18:04,VALID,1009.511,VALID,0.0,VALID,104.0,VALID,0.0,VALID,22.955,VALID,42.0,VALID,0.0,
2011-10-18, 02:19:04,VALID,1009.554,VALID,0.0,VALID,104.0,VALID,0.0,VALID,22.955,VALID,42.0,VALID,0.0,
2011-10-18, 02:20:04,VALID,1009.591,VALID,0.0,VALID,104.0,VALID,0.0,VALID,22.934,VALID,42.0,VALID,0.0,
2011-10-18, 02:21:04,VALID,1009.601,VALID,0.0,VALID,104.0,VALID,0.0,VALID,22.915,VALID,42.0,VALID,0.0,
2011-10-18, 02:22:04,VALID,1009.618,VALID,0.0,VALID,104.0,VALID,0.0,VALID,22.936,VALID,42.0,VALID,0.0,
2011-10-18, 02:23:04,VALID,1009.62,VALID,0.0,VALID,104.0,VALID,0.0,VALID,22.936,VALID,42.0,VALID,0.0,
2011-10-18, 02:24:04,VALID,1009.596,VALID,0.0,VALID,104.0,VALID,0.0,VALID,22.934,VALID,42.0,VALID,0.0,
2011-10-18, 02:25:04,VALID,1009.616,VALID,0.0,VALID,104.0,VALID,0.0,VALID,22.934,VALID,42.0,VALID,0.0,
2011-10-18, 02:26:04,VALID,1009.596,VALID,0.0,VALID,104.0,VALID,0.0,VALID,22.994,VALID,42.0,VALID,0.0,
2011-10-18, 02:27:04,VALID,1009.584,VALID,0.0,VALID,104.0,VALID,0.0,VALID,22.973,VALID,42.0,VALID,0.0,
2011-10-18, 02:28:04,VALID,1009.588,VALID,0.0,VALID,104.0,VALID,0.0,VALID,23.014,VALID,42.0,VALID,0.0,
2011-10-18, 02:29:04,VALID,1009.58,VALID,0.0,VALID,104.0,VALID,0.0,VALID,23.014,VALID,42.0,VALID,0.0,
2011-10-18, 02:30:04,VALID,1009.558,VALID,0.0,VALID,104.0,VALID,0.0,VALID,23.012,VALID,42.0,VALID,0.0,
2011-10-18, 02:31:04,VALID,1009.576,VALID,0.0,VALID,104.0,VALID,0.0,VALID,23.033,VALID,42.0,VALID,0.0,
2011-10-18, 02:32:04,VALID,1009.567,VALID,0.0,VALID,104.0,VALID,0.0,VALID,23.012,VALID,42.0,VALID,0.0,
2011-10-18, 02:33:04,VALID,1009.61,VALID,0.0,VALID,104.0,VALID,0.0,VALID,23.032,VALID,42.0,VALID,0.0,
2011-10-18, 02:34:04,VALID,1009.599,VALID,0.0,VALID,104.0,VALID,0.0,VALID,23.032,VALID,42.0,VALID,0.0,
2011-10-18, 02:35:04,VALID,1009.562,VALID,0.0,VALID,104.0,VALID,0.0,VALID,23.012,VALID,42.0,VALID,0.002,
2011-10-18, 02:36:04,VALID,1009.572,VALID,0.0,VALID,104.0,VALID,0.0,VALID,23.012,VALID,42.0,VALID,0.101,
2011-10-18, 02:37:04,VALID,1009.5,VALID,0.0,VALID,104.0,VALID,0.0,VALID,23.012,VALID,42.0,VALID,0.0,
2011-10-18, 02:38:04,VALID,1009.488,VALID,0.0,VALID,104.0,VALID,0.0,VALID,23.012,VALID,42.0,VALID,0.0,
2011-10-18, 02:39:04,VALID,1009.461,VALID,0.0,VALID,104.0,VALID,0.0,VALID,22.993,VALID,42.0,VALID,0.0,
2011-10-18, 02:40:04,VALID,1009.43,VALID,0.0,VALID,104.0,VALID,0.0,VALID,22.971,VALID,42.0,VALID,0.0,
2011-10-18, 02:41:04,VALID,1009.449,VALID,0.0,VALID,104.0,VALID,0.0,VALID,22.973,VALID,42.0,VALID,0.0,
2011-10-18, 02:42:04,VALID,1009.453,VALID,0.0,VALID,104.0,VALID,0.0,VALID,22.973,VALID,42.0,VALID,0.0,
2011-10-18, 02:43:04,VALID,1009.467,VALID,0.0,VALID,104.0,VALID,0.0,VALID,22.954,VALID,42.0,VALID,0.034,
2011-10-18, 02:44:04,VALID,1009.477,VALID,0.0,VALID,104.0,VALID,0.0,VALID,22.915,VALID,42.0,VALID,0.176,
2011-10-18, 02:45:04,VALID,1009.521,VALID,0.0,VALID,104.0,VALID,0.0,VALID,22.895,VALID,42.0,VALID,0.202,
2011-10-18, 02:46:04,VALID,1009.532,VALID,0.0,VALID,104.0,VALID,0.0,VALID,22.895,VALID,42.0,VALID,0.279,
2011-10-18, 02:47:04,VALID,1009.514,VALID,0.0,VALID,104.0,VALID,0.0,VALID,22.895,VALID,42.0,VALID,0.074,
2011-10-18, 02:48:04,VALID,1009.529,VALID,0.0,VALID,104.0,VALID,0.0,VALID,22.915,VALID,42.0,VALID,0.146,
2011-10-18, 02:49:04,VALID,1009.523,VALID,0.0,VALID,104.0,VALID,0.0,VALID,22.934,VALID,42.0,VALID,0.209,
2011-10-18, 02:50:04,VALID,1009.529,VALID,0.0,VALID,104.0,VALID,0.112,VALID,22.954,VALID,42.0,VALID,0.228,
2011-10-18, 02:51:04,VALID,1009.525,VALID,0.0,VALID,104.0,VALID,0.0,VALID,22.973,VALID,42.0,VALID,0.324,
2011-10-18, 02:52:04,VALID,1009.535,VALID,0.0,VALID,104.0,VALID,0.0,VALID,23.012,VALID,43.0,VALID,0.52,
2011-10-18, 02:53:04,VALID,1009.529,VALID,0.0,VALID,104.0,VALID,0.0,VALID,23.051,VALID,43.0,VALID,0.227,
2011-10-18, 02:54:04,VALID,1009.528,VALID,0.0,VALID,104.0,VALID,0.0,VALID,23.071,VALID,43.0,VALID,0.422,
2011-10-18, 02:55:04,VALID,1009.509,VALID,0.0,VALID,104.0,VALID,0.0,VALID,23.09,VALID,43.0,VALID,0.589,
2011-10-18, 02:56:04,VALID,1009.485,VALID,0.0,VALID,104.0,VALID,0.0,VALID,23.109,VALID,75.0,VALID,0.833,
2011-10-18, 02:57:04,VALID,1009.49,VALID,0.0,VALID,104.0,VALID,0.0,VALID,23.129,VALID,78.0,VALID,0.734,
2011-10-18, 02:58:04,VALID,1009.505,VALID,0.0,VALID,104.0,VALID,0.0,VALID,23.148,VALID,80.0,VALID,0.524,
2011-10-18, 02:59:04,VALID,1009.483,VALID,0.0,VALID,104.0,VALID,0.0,VALID,23.148,VALID,80.0,VALID,0.478,
2011-10-18, 03:00:04,VALID,1009.462,VALID,0.0,VALID,104.0,VALID,0.0,VALID,23.17,VALID,81.0,VALID,0.482,
2011-10-18, 03:01:04,VALID,1009.423,VALID,0.0,VALID,104.0,VALID,0.0,VALID,23.168,VALID,81.0,VALID,0.319,
2011-10-18, 03:02:04,VALID,1009.406,VALID,0.0,VALID,104.0,VALID,0.0,VALID,23.189,VALID,81.0,VALID,0.26,
2011-10-18, 03:03:04,VALID,1009.391,VALID,0.0,VALID,104.0,VALID,0.0,VALID,23.187,VALID,81.0,VALID,0.375,
2011-10-18, 03:04:04,VALID,1009.372,VALID,0.0,VALID,104.0,VALID,0.112,VALID,23.187,VALID,89.0,VALID,0.7,
2011-10-18, 03:05:04,VALID,1009.356,VALID,0.0,VALID,104.0,VALID,0.0,VALID,23.168,VALID,105.0,VALID,0.879,
2011-10-18, 03:06:04,VALID,1009.369,VALID,0.0,VALID,104.0,VALID,0.0,VALID,23.187,VALID,104.0,VALID,0.68,
2011-10-18, 03:07:04,VALID,1009.338,VALID,0.0,VALID,104.0,VALID,0.0,VALID,23.187,VALID,103.0,VALID,0.618,
2011-10-18, 03:08:04,VALID,1009.359,VALID,0.0,VALID,104.0,VALID,0.0,VALID,23.187,VALID,103.0,VALID,0.562,
2011-10-18, 03:09:04,VALID,1009.365,VALID,0.0,VALID,104.0,VALID,0.0,VALID,23.166,VALID,102.0,VALID,0.514,
2011-10-18, 03:10:04,VALID,1009.331,VALID,0.0,VALID,104.0,VALID,0.0,VALID,23.207,VALID,83.0,VALID,0.818,
2011-10-18, 03:11:04,VALID,1009.331,VALID,0.0,VALID,104.0,VALID,0.0,VALID,23.207,VALID,79.0,VALID,0.783,
2011-10-18, 03:12:04,VALID,1009.349,VALID,0.0,VALID,104.0,VALID,0.0,VALID,23.187,VALID,75.0,VALID,0.423,
2011-10-18, 03:13:04,VALID,1009.307,VALID,0.0,VALID,104.0,VALID,0.0,VALID,23.207,VALID,70.0,VALID,0.549,
2011-10-18, 03:14:04,VALID,1009.324,VALID,0.0,VALID,104.0,VALID,0.112,VALID,23.207,VALID,65.0,VALID,0.558,
2011-10-18, 03:15:04,VALID,1009.301,VALID,0.0,VALID,104.0,VALID,0.0,VALID,23.209,VALID,65.0,VALID,0.216,
2011-10-18, 03:16:04,VALID,1009.29,VALID,0.0,VALID,104.0,VALID,0.112,VALID,23.166,VALID,65.0,VALID,0.371,
2011-10-18, 03:17:04,VALID,1009.283,VALID,0.0,VALID,104.0,VALID,0.0,VALID,23.168,VALID,63.0,VALID,0.573,
2011-10-18, 03:18:04,VALID,1009.245,VALID,0.0,VALID,104.0,VALID,0.0,VALID,23.148,VALID,64.0,VALID,0.444,
2011-10-18, 03:19:04,VALID,1009.233,VALID,0.0,VALID,104.0,VALID,0.0,VALID,23.148,VALID,85.0,VALID,0.673,
2011-10-18, 03:20:04,VALID,1009.219,VALID,0.0,VALID,104.0,VALID,0.0,VALID,23.148,VALID,66.0,VALID,0.49,
2011-10-18, 03:21:04,VALID,1009.243,VALID,0.0,VALID,104.0,VALID,0.0,VALID,23.148,VALID,66.0,VALID,0.659,
2011-10-18, 03:22:04,VALID,1009.25,VALID,0.0,VALID,104.0,VALID,0.0,VALID,23.168,VALID,59.0,VALID,0.547,
2011-10-18, 03:23:04,VALID,1009.231,VALID,0.0,VALID,104.0,VALID,0.0,VALID,23.17,VALID,57.0,VALID,0.622,
2011-10-18, 03:24:04,VALID,1009.271,VALID,0.0,VALID,104.0,VALID,0.0,VALID,23.148,VALID,59.0,VALID,0.597,
2011-10-18, 03:25:04,VALID,1009.281,VALID,0.0,VALID,104.0,VALID,0.0,VALID,23.148,VALID,74.0,VALID,0.619,
2011-10-18, 03:26:04,VALID,1009.281,VALID,0.0,VALID,104.0,VALID,0.0,VALID,23.17,VALID,74.0,VALID,0.411,
2011-10-18, 03:27:04,VALID,1009.284,VALID,0.0,VALID,104.0,VALID,0.0,VALID,23.148,VALID,70.0,VALID,0.959,
2011-10-18, 03:28:04,VALID,1009.275,VALID,0.0,VALID,104.0,VALID,0.0,VALID,23.148,VALID,65.0,VALID,0.722,
2011-10-18, 03:29:04,VALID,1009.248,VALID,0.0,VALID,104.0,VALID,0.0,VALID,23.148,VALID,53.0,VALID,0.715,
2011-10-18, 03:30:04,VALID,1009.233,VALID,0.0,VALID,104.0,VALID,0.0,VALID,23.148,VALID,58.0,VALID,0.72,
2011-10-18, 03:31:04,VALID,1009.221,VALID,0.0,VALID,104.0,VALID,0.0,VALID,23.129,VALID,58.0,VALID,0.67,
2011-10-18, 03:32:04,VALID,1009.217,VALID,0.0,VALID,104.0,VALID,0.0,VALID,23.129,VALID,65.0,VALID,1.114,
2011-10-18, 03:33:04,VALID,1009.236,VALID,0.0,VALID,104.0,VALID,0.0,VALID,23.109,VALID,65.0,VALID,0.599,
2011-10-18, 03:34:04,VALID,1009.212,VALID,0.0,VALID,104.0,VALID,0.0,VALID,23.109,VALID,66.0,VALID,0.436,
2011-10-18, 03:35:04,VALID,1009.198,VALID,0.0,VALID,104.0,VALID,0.0,VALID,23.09,VALID,66.0,VALID,0.145,
2011-10-18, 03:36:04,VALID,1009.133,VALID,0.0,VALID,104.0,VALID,0.0,VALID,23.09,VALID,66.0,VALID,0.495,
2011-10-18, 03:37:04,VALID,1009.112,VALID,0.0,VALID,104.0,VALID,0.0,VALID,23.109,VALID,65.0,VALID,0.041,
2011-10-18, 03:38:04,VALID,1009.097,VALID,0.0,VALID,104.0,VALID,0.0,VALID,23.09,VALID,56.0,VALID,0.836,
2011-10-18, 03:39:04,VALID,1009.069,VALID,0.0,VALID,104.0,VALID,0.0,VALID,23.09,VALID,56.0,VALID,0.877,
2011-10-18, 03:40:04,VALID,1009.055,VALID,0.0,VALID,104.0,VALID,0.0,VALID,23.111,VALID,56.0,VALID,0.55,
2011-10-18, 03:41:04,VALID,1009.039,VALID,0.0,VALID,104.0,VALID,0.0,VALID,23.071,VALID,56.0,VALID,0.652,
2011-10-18, 03:42:04,VALID,1009.037,VALID,0.0,VALID,104.0,VALID,0.112,VALID,23.09,VALID,56.0,VALID,0.648,
2011-10-18, 03:43:04,VALID,1009.021,VALID,0.0,VALID,104.0,VALID,0.112,VALID,23.09,VALID,56.0,VALID,0.53,
2011-10-18, 03:44:04,VALID,1008.994,VALID,0.0,VALID,104.0,VALID,0.0,VALID,23.09,VALID,57.0,VALID,0.497,